EW7149 Weather Reports


Display with metric or nautical units.
time (UTC)temp
F
wind
direction
speed
MPH
gust
MPH
rain 1hr
in
rain 24hr
in
rain mn
in
humidity
%
barometer
mb
20260505180609 82 137 0.0 18.0 0.00 0.00 0.00 32 1009.3
20260505180111 82 166 0.0 9.0 0.00 0.00 0.00 34 1009.3
20260505175557 81 177 0.0 9.0 0.00 0.00 0.00 35 1009.4
20260505175040 82 157 0.0 7.0 0.00 0.00 0.00 32 1009.3
20260505174532 82 286 0.0 0.0 0.00 0.00 0.00 36 1009.4
20260505173527 81 254 0.0 8.0 0.00 0.00 0.00 35 1009.5
20260505173029 81 118 0.0 7.0 0.00 0.00 0.00 33 1009.7
20260505172512 81 260 0.0 7.0 0.00 0.00 0.00 34 1009.7
20260505172013 81 200 0.0 0.0 0.00 0.00 0.00 37 1009.6
20260505171523 80 157 0.0 18.0 0.00 0.00 0.00 35 1009.7
20260505171025 81 159 0.0 8.0 0.00 0.00 0.00 35 1009.7
20260505170531 81 173 0.0 7.0 0.00 0.00 0.00 36 1009.9
20260505170026 80 163 0.0 1.0 0.00 0.00 0.00 39 1010.0
20260505165523 80 164 0.0 10.0 0.00 0.00 0.00 38 1009.9
20260505164538 80 237 0.0 2.0 0.00 0.00 0.00 37 1010.2
20260505164021 80 253 0.0 10.0 0.00 0.00 0.00 38 1010.3
20260505163515 80 265 0.0 0.0 0.00 0.00 0.00 38 1010.2
20260505162958 80 130 0.0 9.0 0.00 0.00 0.00 39 1010.3
20260505162453 79 221 0.0 5.0 0.00 0.00 0.00 38 1010.3
20260505161451 79 262 0.0 13.0 0.00 0.00 0.00 38 1010.5
20260505160939 79 154 0.0 13.0 0.00 0.00 0.00 38 1010.4
20260505160441 80 142 0.0 13.0 0.00 0.00 0.00 39 1010.5
20260505152912 79 150 0.0 1.0 0.00 0.00 0.00 42 1010.6
20260505151845 78 166 0.0 12.0 0.00 0.00 0.00 39 1010.4
20260505151340 78 150 0.0 12.0 0.00 0.00 0.00 41 1010.5
20260505150340 78 150 0.0 7.0 0.00 0.00 0.00 42 1010.5
20260505140209 74 348 0.0 2.0 0.00 0.00 0.00 49 1010.6
20260505130125 65 234 0.0 0.0 0.00 0.00 0.00 57 1011.4
20260505124626 63 205 0.0 0.0 0.00 0.00 0.00 56 1011.5
20260505124114 63 168 0.0 0.0 0.00 0.00 0.00 56 1011.4
20260505123615 63 138 0.0 0.0 0.00 0.00 0.00 56 1011.5
20260505122602 62 228 0.0 0.0 0.00 0.00 0.00 55 1011.4
20260505122051 61 163 0.0 3.0 0.00 0.00 0.00 54 1011.5
20260505121549 61 132 0.0 0.0 0.00 0.00 0.00 54 1011.4
20260505121045 60 248 0.0 0.0 0.00 0.00 0.00 53 1011.4
20260505120547 60 316 0.0 0.0 0.00 0.00 0.00 53 1011.3
20260505120029 60 139 0.0 0.0 0.00 0.00 0.00 52 1011.2
20260505113949 59 161 0.0 0.0 0.00 0.00 0.00 51 1011.1
20260505113441 59 182 0.0 0.0 0.00 0.00 0.00 50 1011.1
20260505112933 59 157 0.0 0.0 0.00 0.00 0.00 50 1011.1
20260505112413 59 159 0.0 7.0 0.00 0.00 0.00 50 1011.0
20260505111902 59 165 0.0 3.0 0.00 0.00 0.00 49 1011.1
20260505110852 59 163 0.0 6.0 0.00 0.00 0.00 49 1010.9
20260505110343 59 150 0.0 3.0 0.00 0.00 0.00 49 1010.8
20260505102150 58 147 0.0 0.0 0.00 0.00 0.00 47 1010.3
20260505101658 58 150 0.0 0.0 0.00 0.00 0.00 47 1010.2
20260505100529 58 155 0.0 0.0 0.00 0.00 0.00 47 1010.2
20260505100014 58 182 0.0 0.0 0.00 0.00 0.00 47 1010.2
20260505095511 58 174 0.0 1.0 0.00 0.00 0.00 47 1010.1
20260505095016 58 163 0.0 5.0 0.00 0.00 0.00 47 1010.1
20260505094506 58 157 0.0 3.0 0.00 0.00 0.00 47 1010.0
20260505093952 58 150 0.0 0.0 0.00 0.00 0.00 47 1010.0
20260505093451 58 147 0.0 3.0 0.00 0.00 0.00 47 1010.0
20260505092950 59 163 0.0 0.0 0.00 0.00 0.00 48 1010.1
20260505092439 59 157 0.0 5.0 0.00 0.00 0.00 48 1010.1
20260505091942 59 160 0.0 7.0 0.00 0.00 0.00 49 1010.0
20260505091430 59 162 0.0 7.0 0.00 0.00 0.00 49 1010.0
20260505090920 59 153 0.0 8.0 0.00 0.00 0.00 49 1010.0
20260505090402 59 156 0.0 1.0 0.00 0.00 0.00 50 1009.9
20260505085230 59 159 0.0 2.0 0.00 0.00 0.00 50 1009.9
20260505084713 59 165 0.0 4.0 0.00 0.00 0.00 50 1009.9
20260505083600 60 166 0.0 7.0 0.00 0.00 0.00 51 1010.0
20260505082428 60 140 0.0 0.0 0.00 0.00 0.00 52 1010.0
20260505081936 60 163 0.0 4.0 0.00 0.00 0.00 52 1010.0
20260505081425 60 157 0.0 3.0 0.00 0.00 0.00 53 1010.0
20260505080911 60 161 0.0 1.0 0.00 0.00 0.00 53 1009.9
20260505080421 61 150 0.0 0.0 0.00 0.00 0.00 54 1009.8
20260505075908 61 169 0.0 0.0 0.00 0.00 0.00 54 1009.8
20260505075354 61 167 0.0 3.0 0.00 0.00 0.00 55 1009.7
20260505074842 61 126 0.0 3.0 0.00 0.00 0.00 55 1009.7
20260505074329 61 139 0.0 3.0 0.00 0.00 0.00 55 1009.7
20260505073820 61 155 0.0 1.0 0.00 0.00 0.00 55 1009.6
20260505073321 61 157 0.0 0.0 0.00 0.00 0.00 55 1009.6
20260505072807 61 148 0.0 4.0 0.00 0.00 0.00 54 1009.6
20260505072259 61 156 0.0 0.0 0.00 0.00 0.00 54 1009.7
20260505071801 61 153 0.0 0.0 0.00 0.00 0.00 54 1009.6
20260505071242 61 151 0.0 1.0 0.00 0.00 0.00 55 1009.6
20260505070746 61 153 0.0 0.0 0.00 0.00 0.00 54 1009.6
20260505070233 61 154 0.0 1.0 0.00 0.00 0.00 55 1009.6
20260505065715 61 157 0.0 0.0 0.00 0.00 0.00 54 1009.7
20260505065155 61 164 0.0 0.0 0.00 0.00 0.00 54 1009.8
20260505064655 61 173 0.0 2.0 0.00 0.00 0.00 54 1009.7
20260505064136 61 160 0.0 0.0 0.00 0.00 0.00 55 1009.8
20260505063642 61 153 0.0 5.0 0.00 0.00 0.00 55 1009.8
20260505063152 61 151 0.0 5.0 0.00 0.00 0.00 55 1009.8
20260505062641 61 151 0.0 3.0 0.00 0.00 0.00 56 1009.8
20260505062132 61 170 0.0 0.0 0.00 0.00 0.00 56 1009.8
20260505061626 62 170 0.0 0.0 0.00 0.00 0.00 56 1009.9
20260505061106 62 170 0.0 0.0 0.00 0.00 0.00 56 1009.8
20260505060555 62 170 0.0 3.0 0.00 0.00 0.00 56 1009.8
20260505060046 62 171 0.0 0.0 0.00 0.00 0.00 56 1009.8
20260505055553 62 161 0.0 1.0 0.00 0.00 0.00 56 1009.8
20260505055054 62 165 0.0 0.0 0.00 0.00 0.00 56 1009.8
20260505054536 63 153 0.0 3.0 0.00 0.00 0.00 57 1009.8
20260505054041 63 151 0.0 0.0 0.00 0.00 0.00 57 1009.8
20260505052907 63 128 0.0 0.0 0.00 0.00 0.00 57 1009.9
20260505051125 63 166 0.0 4.0 0.00 0.00 0.00 57 1009.9
20260505050623 63 141 0.0 0.0 0.00 0.00 0.00 57 1009.8
20260505041751 64 162 0.0 0.0 0.00 0.00 0.00 56 1009.8
20260505041243 64 182 0.0 6.0 0.00 0.00 0.00 56 1009.7
20260505040745 64 161 0.0 2.0 0.00 0.00 0.00 55 1009.7
20260505040252 64 149 0.0 3.0 0.00 0.00 0.00 55 1009.8
20260505035743 64 147 0.0 3.0 0.00 0.00 0.00 55 1009.8
20260505035234 64 163 0.0 0.0 0.00 0.00 0.00 55 1009.8
20260505034736 64 179 0.0 0.0 0.00 0.00 0.00 55 1009.8
20260505034243 64 156 0.0 3.0 0.00 0.00 0.00 55 1009.7
20260505033735 64 136 0.0 3.0 0.00 0.00 0.00 55 1009.8
20260505033236 64 158 0.0 6.0 0.00 0.00 0.00 55 1009.8
20260505032720 64 161 0.0 4.0 0.00 0.00 0.00 54 1009.8
20260505032206 64 169 0.0 1.0 0.00 0.00 0.00 54 1009.8
20260505031716 64 162 0.0 7.0 0.00 0.00 0.00 54 1009.8
20260505031200 64 153 0.0 3.0 0.00 0.00 0.00 54 1009.8
20260505030710 64 173 0.0 1.0 0.00 0.00 0.00 54 1009.8
20260505030213 64 161 0.0 0.0 0.00 0.00 0.00 54 1009.8
20260505025706 64 147 0.0 0.0 0.00 0.00 0.00 54 1009.8
20260505025215 64 157 0.0 0.0 0.00 0.00 0.00 53 1009.8
20260505024722 65 155 0.0 0.0 0.00 0.00 0.00 53 1009.8
20260505024204 65 175 0.0 0.0 0.00 0.00 0.00 53 1010.0
20260505023705 65 149 0.0 0.0 0.00 0.00 0.00 52 1009.9
20260505023151 65 148 0.0 0.0 0.00 0.00 0.00 52 1009.9
20260505022637 65 168 0.0 0.0 0.00 0.00 0.00 52 1009.9
20260505022130 65 158 0.0 0.0 0.00 0.00 0.00 51 1009.9
20260505021630 66 157 0.0 0.0 0.00 0.00 0.00 51 1009.9
20260505021132 66 154 0.0 0.0 0.00 0.00 0.00 50 1009.8
20260505020623 66 171 0.0 0.0 0.00 0.00 0.00 50 1009.8
20260505020132 66 172 0.0 0.0 0.00 0.00 0.00 50 1009.8
20260505015628 66 151 0.0 0.0 0.00 0.00 0.00 50 1009.7
20260505015118 66 170 0.0 0.0 0.00 0.00 0.00 49 1009.7
20260505014558 66 158 0.0 0.0 0.00 0.00 0.00 49 1009.8
20260505014105 67 156 0.0 0.0 0.00 0.00 0.00 49 1009.8
20260505013548 67 156 0.0 0.0 0.00 0.00 0.00 49 1009.8
20260505013041 67 172 0.0 0.0 0.00 0.00 0.00 48 1009.7
20260505012525 67 163 0.0 0.0 0.00 0.00 0.00 48 1009.5
20260505012029 67 150 0.0 0.0 0.00 0.00 0.00 48 1009.4
20260505011511 67 165 0.0 0.0 0.00 0.00 0.00 47 1009.4
20260505011011 67 163 0.0 0.0 0.00 0.00 0.00 47 1009.4
20260505010512 67 162 0.0 0.0 0.00 0.00 0.00 47 1009.3
20260505005953 68 154 0.0 0.0 0.00 0.00 0.00 46 1009.2
20260505004820 68 149 0.0 0.0 0.00 0.00 0.00 46 1009.1
20260505004309 68 157 0.0 0.0 0.00 0.00 0.00 46 1009.2
20260505003818 68 137 0.0 0.0 0.00 0.00 0.00 45 1009.2
20260505003317 68 158 0.0 0.0 0.00 0.00 0.00 45 1009.1
20260505002805 69 155 0.0 0.0 0.00 0.00 0.00 45 1009.2
20260505002307 69 159 0.0 0.0 0.00 0.00 0.00 44 1009.2
20260505001816 69 160 0.0 0.0 0.00 0.00 0.00 44 1009.1
20260505000707 70 151 0.0 0.0 0.00 0.00 0.00 43 1009.1
20260505000156 70 163 0.0 0.0 0.00 0.00 0.00 42 1009.1
20260504235652 70 140 0.0 0.0 0.00 0.00 0.00 42 1009.0
20260504235148 71 136 0.0 0.0 0.00 0.00 0.00 41 1009.0
20260504234658 71 180 0.0 0.0 0.00 0.00 0.00 41 1008.9
20260504234207 71 141 0.0 0.0 0.00 0.00 0.00 40 1008.9
20260504233702 71 150 0.0 5.0 0.00 0.00 0.00 39 1008.9
20260504233144 72 163 0.0 6.0 0.00 0.00 0.00 39 1008.8
20260504232634 72 156 0.0 8.0 0.00 0.00 0.00 39 1008.8
20260504231511 73 174 0.0 2.0 0.00 0.00 0.00 37 1008.8
20260504231011 74 171 0.0 0.0 0.00 0.00 0.00 37 1008.9
20260504230505 74 124 0.0 2.0 0.00 0.00 0.00 37 1008.8
20260504230008 74 153 0.0 1.0 0.00 0.00 0.00 36 1008.9
20260504225502 74 145 0.0 0.0 0.00 0.00 0.00 36 1009.0
20260504225005 74 187 0.0 2.0 0.00 0.00 0.00 36 1009.0
20260504224508 74 165 0.0 3.0 0.00 0.00 0.00 36 1009.0
20260504223956 74 156 0.0 6.0 0.00 0.00 0.00 36 1008.9
20260504223458 75 178 0.0 1.0 0.00 0.00 0.00 35 1008.9
20260504222955 74 152 0.0 0.0 0.00 0.00 0.00 36 1008.9
20260504222458 74 162 0.0 8.0 0.00 0.00 0.00 36 1008.9
20260504221953 74 145 0.0 8.0 0.00 0.00 0.00 35 1008.9
20260504221444 74 145 0.0 3.0 0.00 0.00 0.00 36 1008.8
20260504220925 74 161 0.0 3.0 0.00 0.00 0.00 37 1008.9
20260504220419 74 157 0.0 8.0 0.00 0.00 0.00 36 1009.0
20260504215913 74 181 0.0 8.0 0.00 0.00 0.00 34 1009.0
20260504215406 75 159 0.0 8.0 0.00 0.00 0.00 34 1009.0
20260504214851 76 169 0.0 6.0 0.00 0.00 0.00 34 1009.0
20260504214353 76 150 0.0 8.0 0.00 0.00 0.00 34 1009.0
20260504213846 76 187 0.0 2.0 0.00 0.00 0.00 34 1009.0
20260504212124 76 172 0.0 0.0 0.00 0.00 0.00 34 1009.0
20260504211619 76 123 0.0 8.0 0.00 0.00 0.00 35 1009.0
20260504211125 76 234 0.0 5.0 0.00 0.00 0.00 34 1009.0
20260504210616 76 142 0.0 5.0 0.00 0.00 0.00 34 1009.1
20260504210112 76 313 0.0 15.0 0.00 0.00 0.00 35 1009.2
20260504205604 76 157 0.0 15.0 0.00 0.00 0.00 35 1009.2
20260504205054 76 154 0.0 8.0 0.00 0.00 0.00 35 1009.2
20260504204548 76 138 0.0 8.0 0.00 0.00 0.00 34 1009.2
20260504204035 76 157 0.0 8.0 0.00 0.00 0.00 36 1009.1
20260504203527 75 306 0.0 2.0 0.00 0.00 0.00 37 1009.1
20260504203016 75 336 0.0 0.0 0.00 0.00 0.00 36 1009.2
20260504202524 75 143 0.0 10.0 0.00 0.00 0.00 35 1009.3
20260504202018 75 274 0.0 5.0 0.00 0.00 0.00 35 1009.4
20260504200855 75 161 0.0 3.0 0.00 0.00 0.00 37 1009.6
20260504200347 75 123 0.0 10.0 0.00 0.00 0.00 34 1009.7
20260504195840 75 151 0.0 0.0 0.00 0.00 0.00 36 1009.8
20260504194659 74 176 0.0 6.0 0.00 0.00 0.00 36 1009.9
20260504194152 74 153 0.0 6.0 0.00 0.00 0.00 36 1010.1
20260504193700 74 153 0.0 13.0 0.00 0.00 0.00 35 1010.1
20260504193204 74 283 0.0 0.0 0.00 0.00 0.00 37 1010.2
20260504192646 74 243 0.0 10.0 0.00 0.00 0.00 35 1010.4
20260504192149 74 230 1.0 10.0 0.00 0.00 0.00 36 1010.6
20260504191650 74 167 1.0 11.0 0.00 0.00 0.00 36 1010.5
20260504191145 74 136 0.0 8.0 0.00 0.00 0.00 36 1010.6
20260504190641 73 155 0.0 5.0 0.00 0.00 0.00 38 1010.7
20260504190148 73 282 0.0 2.0 0.00 0.00 0.00 38 1010.9
20260504183158 72 153 1.0 14.0 0.00 0.00 0.00 36 1011.4
20260504182650 72 144 1.0 9.0 0.00 0.00 0.00 37 1011.3
20260504181532 72 293 1.0 10.0 0.00 0.00 0.00 37 1011.5
20260504181029 72 178 0.0 10.0 0.00 0.00 0.00 37 1011.6